When you browse on this site, cookies collect data to enhance your experience and personalize the content and advertising you see.
Visit our Privacy Policy to learn more. By continuing to use the site, you agree to this use of cookies and data.
  • In Czech Republic
  • List of Countries
  • For 7 days
  • Water Temperature
  • Satellite Maps
  • Weather Map
  • Weather Widgets
  • user-avatar
    Login

    Hourly Weather Hobart

    Today, 16 November, Friday

    Time Temperature Precipitation Wind Pressure Humidity
    00:00 +8°C° 0 mm 1 mps 755 mmHg 77%
    01:00 +7°C° 0 mm 2 mps 754 mmHg 79%
    02:00 +6°C° 0 mm 2 mps 754 mmHg 84%
    03:00 +5°C° 0 mm 2 mps 754 mmHg 88%
    04:00 +5°C° 0 mm 2 mps 753 mmHg 94%
    05:00 +7°C° 0 mm 2 mps 753 mmHg 87%
    06:00 +8°C° 0 mm 2 mps 753 mmHg 80%
    07:00 +10°C° 0 mm 3 mps 753 mmHg 73%
    08:00 +12°C° 0 mm 2 mps 753 mmHg 68%
    09:00 +14°C° 0 mm 2 mps 752 mmHg 64%
    10:00 +15°C° 0 mm 2 mps 753 mmHg 57%
    11:00 +15°C° 0.2 mm 2 mps 752 mmHg 59%
    12:00 +15°C° 0.2 mm 2 mps 752 mmHg 61%
    13:00 +14°C° 0.2 mm 3 mps 752 mmHg 62%
    14:00 +14°C° 0.4 mm 3 mps 752 mmHg 62%
    15:00 +14°C° 0.4 mm 3 mps 751 mmHg 61%
    16:00 +14°C° 0 mm 3 mps 751 mmHg 59%
    17:00 +13°C° 0.1 mm 3 mps 751 mmHg 65%
    18:00 +11°C° 0.1 mm 3 mps 752 mmHg 70%
    19:00 +10°C° 0.1 mm 2 mps 752 mmHg 76%
    20:00 +9°C° 0 mm 2 mps 752 mmHg 81%
    21:00 +7°C° 0 mm 2 mps 753 mmHg 86%
    22:00 +6°C° 0 mm 2 mps 753 mmHg 91%
    23:00 +5°C° 0 mm 2 mps 753 mmHg 92%

    Tomorrow, 17 November, Saturday

    Time Temperature Precipitation Wind Pressure Humidity
    00:00 +5°C° 0 mm 2 mps 753 mmHg 93%
    01:00 +4°C° 0 mm 2 mps 753 mmHg 95%
    02:00 +4°C° 0 mm 2 mps 753 mmHg 95%
    03:00 +4°C° 0 mm 2 mps 753 mmHg 95%
    04:00 +4°C° 0 mm 2 mps 753 mmHg 96%
    05:00 +6°C° 0 mm 2 mps 753 mmHg 90%
    06:00 +8°C° 0 mm 3 mps 753 mmHg 83%
    07:00 +10°C° 0 mm 3 mps 753 mmHg 77%
    08:00 +12°C° 0 mm 3 mps 754 mmHg 69%
    09:00 +14°C° 0 mm 3 mps 754 mmHg 61%
    10:00 +17°C° 0 mm 4 mps 754 mmHg 53%
    11:00 +18°C° 0 mm 4 mps 754 mmHg 49%
    12:00 +19°C° 0 mm 4 mps 754 mmHg 46%
    13:00 +20°C° 0 mm 4 mps 754 mmHg 43%
    14:00 +20°C° 0 mm 4 mps 754 mmHg 43%
    15:00 +20°C° 0 mm 4 mps 754 mmHg 44%
    16:00 +19°C° 0 mm 4 mps 754 mmHg 45%
    17:00 +17°C° 0 mm 4 mps 754 mmHg 54%
    18:00 +14°C° 0 mm 4 mps 754 mmHg 63%
    19:00 +12°C° 0 mm 3 mps 755 mmHg 73%
    20:00 +11°C° 0 mm 3 mps 755 mmHg 80%
    21:00 +9°C° 0 mm 2 mps 756 mmHg 87%
    22:00 +8°C° 0 mm 2 mps 756 mmHg 95%
    23:00 +9°C° 0 mm 1 mps 756 mmHg 95%

    Day after tomorrow, 18 November, Sunday

    Time Temperature Precipitation Wind Pressure Humidity
    00:00 +9°C° 0 mm 1 mps 755 mmHg 95%
    01:00 +9°C° 0 mm 1 mps 755 mmHg 95%
    02:00 +9°C° 0 mm 1 mps 755 mmHg 96%
    03:00 +8°C° 0 mm 1 mps 755 mmHg 96%
    04:00 +8°C° 0 mm 1 mps 755 mmHg 97%
    05:00 +10°C° 0 mm 1 mps 755 mmHg 91%
    06:00 +11°C° 0 mm 1 mps 755 mmHg 84%
    07:00 +13°C° 0 mm 1 mps 756 mmHg 78%
    08:00 +15°C° 0 mm 1 mps 755 mmHg 67%
    09:00 +19°C° 0 mm 1 mps 755 mmHg 56%
    10:00 +21°C° 0 mm 1 mps 755 mmHg 45%
    11:00 +21°C° 0 mm 2 mps 755 mmHg 42%
    12:00 +24°C° 0 mm 3 mps 755 mmHg 38%
    13:00 +25°C° 0 mm 3 mps 754 mmHg 35%
    14:00 +23°C° 0 mm 4 mps 754 mmHg 38%
    15:00 +22°C° 0 mm 4 mps 754 mmHg 42%
    16:00 +22°C° 0 mm 4 mps 754 mmHg 46%
    17:00 +19°C° 0 mm 4 mps 754 mmHg 56%
    18:00 +17°C° 0 mm 4 mps 754 mmHg 65%
    19:00 +14°C° 0 mm 4 mps 754 mmHg 75%
    20:00 +13°C° 0 mm 3 mps 754 mmHg 83%
    21:00 +11°C° 0 mm 3 mps 754 mmHg 90%
    22:00 +10°C° 0 mm 3 mps 754 mmHg 97%
    23:00 +10°C° 0 mm 3 mps 754 mmHg 97%

    19 November, Monday

    Time Temperature Precipitation Wind Pressure Humidity
    00:00 +9°C° 0 mm 3 mps 753 mmHg 98%
    01:00 +9°C° 0 mm 3 mps 753 mmHg 98%
    02:00 +9°C° 0 mm 3 mps 753 mmHg 98%
    03:00 +8°C° 0 mm 3 mps 753 mmHg 98%
    04:00 +8°C° 0 mm 3 mps 752 mmHg 98%
    05:00 +10°C° 0 mm 3 mps 752 mmHg 89%
    06:00 +12°C° 0 mm 4 mps 752 mmHg 80%
    07:00 +13°C° 0 mm 4 mps 752 mmHg 72%
    08:00 +17°C° 0 mm 4 mps 752 mmHg 61%
    09:00 +20°C° 0 mm 5 mps 751 mmHg 50%
    10:00 +22°C° 0 mm 5 mps 751 mmHg 39%
    11:00 +24°C° 0 mm 6 mps 751 mmHg 36%
    12:00 +26°C° 0 mm 6 mps 750 mmHg 33%
    13:00 +27°C° 0 mm 6 mps 750 mmHg 29%
    14:00 +27°C° 0 mm 7 mps 749 mmHg 31%
    15:00 +27°C° 0 mm 7 mps 749 mmHg 32%
    16:00 +27°C° 0 mm 7 mps 748 mmHg 33%
    17:00 +23°C° 0 mm 7 mps 748 mmHg 41%
    18:00 +21°C° 0 mm 6 mps 748 mmHg 48%
    19:00 +19°C° 0 mm 6 mps 748 mmHg 56%
    20:00 +16°C° 0 mm 6 mps 748 mmHg 62%
    21:00 +15°C° 0 mm 5 mps 748 mmHg 69%
    22:00 +13°C° 0 mm 5 mps 747 mmHg 76%
    23:00 +13°C° 0 mm 5 mps 747 mmHg 77%

    20 November, Tuesday

    Time Temperature Precipitation Wind Pressure Humidity
    00:00 +12°C° 0 mm 5 mps 746 mmHg 79%
    01:00 +12°C° 0 mm 5 mps 746 mmHg 81%
    02:00 +12°C° 0 mm 5 mps 745 mmHg 79%
    03:00 +12°C° 0 mm 5 mps 745 mmHg 78%
    04:00 +12°C° 0 mm 5 mps 744 mmHg 76%
    05:00 +13°C° 0 mm 5 mps 744 mmHg 73%
    06:00 +14°C° 0 mm 5 mps 743 mmHg 69%
    07:00 +15°C° 0 mm 5 mps 743 mmHg 66%
    08:00 +16°C° 0.1 mm 6 mps 743 mmHg 66%
    09:00 +17°C° 0.1 mm 6 mps 742 mmHg 66%
    10:00 +19°C° 0.1 mm 6 mps 742 mmHg 66%
    11:00 +20°C° 0.2 mm 6 mps 741 mmHg 67%
    12:00 +21°C° 0.2 mm 6 mps 740 mmHg 67%
    13:00 +22°C° 0.2 mm 6 mps 739 mmHg 68%
    14:00 +22°C° 0.3 mm 5 mps 739 mmHg 71%
    15:00 +22°C° 0.3 mm 5 mps 738 mmHg 74%
    16:00 +21°C° 0.3 mm 5 mps 737 mmHg 77%
    17:00 +20°C° 0.8 mm 4 mps 737 mmHg 83%
    18:00 +18°C° 0.8 mm 4 mps 737 mmHg 88%
    19:00 +17°C° 0.8 mm 3 mps 737 mmHg 94%
    20:00 +16°C° 0.2 mm 3 mps 736 mmHg 95%
    21:00 +16°C° 0.2 mm 2 mps 736 mmHg 96%
    22:00 +15°C° 0.2 mm 2 mps 736 mmHg 97%
    23:00 +14°C° 0.1 mm 2 mps 735 mmHg 97%

    21 November, Wednesday

    Time Temperature Precipitation Wind Pressure Humidity
    00:00 +14°C° 0.1 mm 2 mps 735 mmHg 98%
    01:00 +14°C° 0.1 mm 2 mps 735 mmHg 98%
    02:00 +13°C° 0.1 mm 2 mps 734 mmHg 98%
    03:00 +13°C° 0.1 mm 2 mps 734 mmHg 98%
    04:00 +12°C° 0.1 mm 3 mps 734 mmHg 98%
    05:00 +12°C° 0 mm 3 mps 734 mmHg 96%
    06:00 +12°C° 0 mm 3 mps 734 mmHg 95%
    07:00 +13°C° 0 mm 3 mps 734 mmHg 93%
    08:00 +13°C° 0.1 mm 3 mps 734 mmHg 88%
    09:00 +14°C° 0.1 mm 3 mps 733 mmHg 83%
    10:00 +14°C° 0.1 mm 3 mps 733 mmHg 78%
    11:00 +14°C° 0.1 mm 3 mps 733 mmHg 78%
    12:00 +14°C° 0.1 mm 3 mps 732 mmHg 78%
    13:00 +14°C° 0.1 mm 3 mps 732 mmHg 77%
    14:00 +14°C° 0.1 mm 3 mps 732 mmHg 77%
    15:00 +14°C° 0.1 mm 3 mps 731 mmHg 78%
    16:00 +14°C° 0.1 mm 3 mps 731 mmHg 78%
    17:00 +13°C° 0.2 mm 3 mps 731 mmHg 83%
    18:00 +11°C° 0.2 mm 3 mps 731 mmHg 88%
    19:00 +10°C° 0.2 mm 3 mps 731 mmHg 94%
    20:00 +10°C° 0.6 mm 3 mps 732 mmHg 95%
    21:00 +9°C° 0.6 mm 3 mps 732 mmHg 96%
    22:00 +9°C° 0.6 mm 2 mps 732 mmHg 97%
    23:00 +9°C° 0.3 mm 2 mps 732 mmHg 97%
    Show more